Regional Weather Roundup
Issued by NWS

Home | Current Version | Previous Version | Text Only | Print | Product List | Glossary On
Versions: 1 2 3 4 5 6 7 8 9 10 11 12 13 14 15 16 17 18 19 20 21 22 23 24 25 26 27 28 29 30 31 32 33 34 35 36 37 38 39 40 41 42 43 44 45 46 47 48 49 50
000
ASUS43 KLMK 271810
RWRKY
KENTUCKY REGIONAL WEATHER ROUNDUP
NATIONAL WEATHER SERVICE LOUISVILLE KY
200 PM EDT MON JUL 27 2015

NOTE "FAIR" INDICATES FEW OR NO CLOUDS BELOW 12,000 FEET
WITH NO SIGNIFICANT WEATHER AND/OR OBSTRUCTIONS TO VISIBILITY.

KYZ001>023-026-027-061>063-070>075-271900-
WESTERN AND SOUTH CENTRAL KENTUCKY

CITY           SKY/WX    TMP DP  RH WIND       PRES   REMARKS
PADUCAH        MOSUNNY   89  78  70 S3        29.95F HX 103
HENDERSON      PTSUNNY   90  73  58 SW3       29.94F HX  98
OWENSBORO      PTSUNNY   89  74  61 CALM      29.96F HX  97
HOPKINSVILLE   MOSUNNY   90  76  64 SW3       29.97F HX 101
BOWLING GREEN  PTSUNNY   88  74  63 W7        29.99F HX  96
GLASGOW        PTSUNNY   88  73  60 W6        29.99F HX  95
$$

KYZ024-025-028>034-038-045-046-053-271900-
NORTH CENTRAL KENTUCKY

CITY           SKY/WX    TMP DP  RH WIND       PRES   REMARKS
LOUISVILLE/SDF CLOUDY    85  72  65 CALM      29.97F HX  91
LOUISVILLE/LOU MOSUNNY   84  73  69 SW5       29.99F HX  90
FORT KNOX      PTSUNNY   85  74  67 SW6       29.98F HX  93
$$

KYZ035>037-039>044-047>052-055>060-089>105-271900-
NORTHEAST KENTUCKY

CITY           SKY/WX    TMP DP  RH WIND       PRES   REMARKS
LEXINGTON      PTSUNNY   81  71  71 CALM      30.01F
COVINGTON      PTSUNNY   84  71  65 CALM      29.99F
FRANKFORT      PTSUNNY   83  75  77 SW9       29.99F HX  90
$$

KYZ054-064>069-076>088-106>120-271900-
SOUTHEAST KENTUCKY

CITY           SKY/WX    TMP DP  RH WIND       PRES   REMARKS
JACKSON        MOSUNNY   84  72  67 CALM      30.03F
LONDON         PTSUNNY   85  69  58 SW10      30.02F
SOMERSET       PTSUNNY   82  70  65 CALM      30.02F
MIDDLESBORO    PTSUNNY   86  73  63 CALM      30.02F HX  93
MONTICELLO     PTCLDY    89  71  55 CALM      30.04F HX  95
$$




USA.gov is the U.S. government's official web portal to all federal, state and local government web resources and services.